This is the latest recevied weather packets stored in our database for station/object IK1YPD-13. If no packets are shown the sender has not sent any weather packets the latest 10 day(s).
| Time | Temp. | Humidity | Pressure | Rain* | Wind** | Luminosity | Snow |
|---|---|---|---|---|---|---|---|
| 1787645231 | 23.89° C | 75% | 1007 hPa | - | - | - | - |
| 1787644331 | 23.33° C | 88% | 1007 hPa | - | - | - | - |
| 1787643431 | 22.78° C | 90% | 1007 hPa | - | - | - | - |
| 1787642531 | 22.22° C | 93% | 1007 hPa | - | - | - | - |
| 1787641631 | 22.22° C | 89% | 1007 hPa | - | - | - | - |
| 1787640731 | 21.11° C | 94% | 1007 hPa | - | - | - | - |
| 1787639831 | 21.67° C | 97% | 1007 hPa | - | - | - | - |
| 1787638931 | 21.11° C | 97% | 1007 hPa | - | - | - | - |
| 1787638031 | 20.56° C | 98% | 1007 hPa | - | - | - | - |
| 1787637130 | 20.56° C | 97% | 1007 hPa | - | - | - | - |
| 1787636230 | 20.56° C | 98% | 1007 hPa | - | - | - | - |
| 1787635330 | 20.56° C | 97% | 1007 hPa | - | - | - | - |
| 1787634430 | 20.56° C | 97% | 1007 hPa | - | - | - | - |
| 1787633530 | 20.56° C | 97% | 1007 hPa | - | - | - | - |
| 1787632630 | 20.56° C | 98% | 1006 hPa | - | - | - | - |
| 1787631730 | 20.56° C | 98% | 1006 hPa | - | - | - | - |
| 1787630830 | 20.56° C | 97% | 1007 hPa | - | - | - | - |
| 1787629930 | 20° C | 97% | 1007 hPa | - | - | - | - |
| 1787629030 | 20° C | 97% | 1007 hPa | - | - | - | - |
| 1787628130 | 20° C | 96% | 1007 hPa | - | - | - | - |
| 1787627230 | 20° C | 95% | 1007 hPa | - | - | - | - |
| 1787626330 | 19.44° C | 94% | 1007 hPa | - | - | - | - |
| 1787625430 | 20° C | 95% | 1007 hPa | - | - | - | - |
| 1787624530 | 20° C | 94% | 1007 hPa | - | - | - | - |
| 1787623629 | 20° C | 94% | 1007 hPa | - | - | - | - |
* Rain since midnight (hover to see other rain measurements)
** Current wind speed in m/s (hover to see current wind gust speed)